Branson, MO

12:37 AM CDT on May 27, 2017 (GMT -0500)
Branson

Weather History for KBBG - April, 2013

Change the Weather History Date:

Tuesday, April 2, 2013

  Actual Average (KHRO) Record (KHRO)
Temperature  
Mean Temperature 38 °F -  
Max Temperature 41 °F 66 °F 92 °F (1946)
Min Temperature 35 °F 43 °F 25 °F (1975)
Degree Days  
Heating Degree Days 27    
Moisture  
Dew Point 30 °F    
Average Humidity 77    
Maximum Humidity 93    
Minimum Humidity 53    
Precipitation  
Precipitation 0.00 in - - ()
Sea Level Pressure  
Sea Level Pressure 30.24 in    
Wind  
Wind Speed 5 mph (ENE)    
Max Wind Speed 10 mph    
Max Gust Speed 16 mph    
Visibility 9 miles    
Events Rain    
Averages and records for this station are not official NWS values.
T = Trace of Precipitation, MM = Missing Value Source: NWS Daily Summary

Daily Weather History Graph

Daily Weather History Graph

Search for Another Location

Airport or City:

Trip Planner

Search our weather history database for the weather conditions in past years. The results will help you decide how hot, cold, wet, or windy it might be!

Date:

Astronomy

Apr. 02, 2013 Rise Set
Actual Time 6:56 AM CDT 7:36 PM CDT
Civil Twilight 6:30 AM CDT 8:02 PM CDT
Nautical Twilight 6:00 AM CDT 8:32 PM CDT
Astronomical Twilight 5:28 AM CDT 9:04 PM CDT
Moon 1:34 AM CDT (4/2) 11:55 AM CDT (4/2)
Length of Visible Light 13h 31m
Length of Day
12h 39m
Waning Gibbous, 55% of the Moon is Illuminated
Apr 2
Waning Gibbous
Apr 2
Last Quarter
Apr 10
New
Apr 18
First Quarter
Apr 25
Full

Hourly Weather History & Observations

Time (CDT) Temp. Windchill Dew Point Humidity Pressure Visibility Wind Dir Wind Speed Gust Speed Precip Events Conditions
12:15 AM 41.0 °F - 32.0 °F 70% 30.19 in 10.0 mi Calm Calm - N/A   Overcast
12:35 AM 41.0 °F - 30.2 °F 65% 30.21 in 10.0 mi Calm Calm - N/A   Overcast
12:55 AM 41.0 °F 38.0 °F 32.0 °F 70% 30.21 in 10.0 mi NE 4.6 mph - N/A   Overcast
1:15 AM 41.0 °F 39.0 °F 30.2 °F 65% 30.22 in 10.0 mi NE 3.5 mph - N/A   Overcast
1:35 AM 41.0 °F 38.0 °F 28.4 °F 61% 30.22 in 10.0 mi NE 4.6 mph - N/A   Overcast
1:55 AM 41.0 °F 36.4 °F 28.4 °F 61% 30.21 in 10.0 mi NE 6.9 mph - N/A   Overcast
2:15 AM 41.0 °F 38.0 °F 26.6 °F 57% 30.22 in 10.0 mi NNE 4.6 mph - N/A   Overcast
2:35 AM 41.0 °F 36.4 °F 26.6 °F 57% 30.22 in 10.0 mi NNE 6.9 mph - N/A   Overcast
2:55 AM 41.0 °F 36.4 °F 26.6 °F 57% 30.21 in 10.0 mi NE 6.9 mph - N/A   Overcast
3:15 AM 41.0 °F 37.1 °F 24.8 °F 53% 30.22 in 10.0 mi North 5.8 mph - N/A   Overcast
3:35 AM 39.2 °F 33.6 °F 26.6 °F 61% 30.22 in 10.0 mi NNE 8.1 mph - N/A   Overcast
3:55 AM 39.2 °F 34.2 °F 26.6 °F 61% 30.22 in 10.0 mi NNE 6.9 mph - N/A Rain Light Rain
4:15 AM 39.2 °F 34.2 °F 26.6 °F 61% 30.22 in 10.0 mi NNE 6.9 mph - N/A Rain Light Rain
4:35 AM 37.4 °F 32.1 °F 28.4 °F 70% 30.22 in 10.0 mi NE 6.9 mph - N/A Rain Light Rain
4:55 AM 37.4 °F 32.8 °F 28.4 °F 70% 30.22 in 10.0 mi NNE 5.8 mph - N/A Rain Light Rain
5:15 AM 37.4 °F 32.1 °F 28.4 °F 70% 30.22 in 10.0 mi NNE 6.9 mph - N/A   Overcast
5:35 AM 37.4 °F 32.1 °F 28.4 °F 70% 30.22 in 10.0 mi NE 6.9 mph - N/A   Overcast
5:55 AM 37.4 °F 31.4 °F 28.4 °F 70% 30.22 in 10.0 mi ENE 8.1 mph - N/A   Overcast
6:15 AM 37.4 °F 33.8 °F 28.4 °F 70% 30.23 in 10.0 mi ENE 4.6 mph - N/A   Overcast
6:35 AM 35.6 °F 32.8 °F 30.2 °F 81% 30.24 in 5.0 mi NNE 3.5 mph - N/A Rain Light Rain
6:48 AM 35.6 °F 30.7 °F 30.2 °F 81% 30.24 in 7.0 mi NE 5.8 mph - N/A Rain Light Rain
7:48 AM 35.6 °F 30.7 °F 32.0 °F 87% 30.26 in 7.0 mi NE 5.8 mph - N/A Rain Light Rain
8:52 AM 35.6 °F 31.7 °F 32.0 °F 87% 30.28 in 8.0 mi NE 4.6 mph - N/A Rain Light Rain
9:50 AM 35.6 °F 31.7 °F 32.0 °F 87% 30.29 in 3.0 mi East 4.6 mph - N/A Rain Light Rain
10:47 AM 35.6 °F 29.9 °F 32.0 °F 87% 30.29 in 10.0 mi East 6.9 mph - N/A   Overcast
11:46 AM 35.6 °F 28.6 °F 32.0 °F 87% 30.27 in 7.0 mi ESE 9.2 mph - N/A Rain Light Rain
12:47 PM 35.6 °F 28.6 °F 32.0 °F 87% 30.28 in 3.0 mi ESE 9.2 mph 16.1 mph N/A Rain Light Rain
1:45 PM 35.6 °F 29.9 °F 33.8 °F 93% 30.26 in 5.0 mi ENE 6.9 mph - N/A Rain Light Rain
2:50 PM 35.6 °F 29.9 °F 33.8 °F 93% 30.25 in 5.0 mi East 6.9 mph - N/A Rain Light Rain
3:45 PM 35.6 °F 28.0 °F 32.0 °F 87% 30.25 in 5.0 mi East 10.4 mph - N/A Rain Light Rain
4:50 PM 35.6 °F 29.2 °F 33.8 °F 93% 30.24 in 7.0 mi East 8.1 mph - N/A   Overcast
5:45 PM 35.6 °F 29.9 °F 32.0 °F 87% 30.24 in 7.0 mi East 6.9 mph - N/A Rain Light Rain
6:48 PM 35.6 °F 29.9 °F 32.0 °F 87% 30.24 in 9.0 mi East 6.9 mph - N/A   Overcast
7:55 PM 35.6 °F 31.7 °F 32.0 °F 87% 30.24 in 10.0 mi East 4.6 mph - N/A   Overcast
9:15 PM 35.6 °F 31.7 °F 32.0 °F 87% 30.24 in 10.0 mi ESE 4.6 mph - N/A   Overcast
9:35 PM 35.6 °F 30.7 °F 32.0 °F 87% 30.24 in 10.0 mi East 5.8 mph - N/A   Overcast
9:55 PM 35.6 °F 31.7 °F 32.0 °F 87% 30.24 in 10.0 mi ESE 4.6 mph - N/A   Overcast
10:15 PM 35.6 °F 31.7 °F 32.0 °F 87% 30.24 in 10.0 mi ESE 4.6 mph - N/A   Overcast
10:35 PM 35.6 °F 32.8 °F 32.0 °F 87% 30.24 in 10.0 mi East 3.5 mph - N/A   Overcast
10:55 PM 35.6 °F 32.8 °F 32.0 °F 87% 30.24 in 10.0 mi ESE 3.5 mph - N/A   Overcast
11:15 PM 35.6 °F - 32.0 °F 87% 30.24 in 10.0 mi Calm Calm - N/A   Overcast
11:35 PM 35.6 °F - 32.0 °F 87% 30.25 in 10.0 mi Calm Calm - N/A   Overcast
11:55 PM 35.6 °F - 32.0 °F 87% 30.24 in 10.0 mi Calm Calm - N/A   Overcast